Year,Month,Day,Hour,Minute,Value (Times are PST for temperature in C)
2009,09,12,00,00,14.90
2009,09,12,00,01,14.90
2009,09,12,00,02,14.90
2009,09,12,00,03,14.90
2009,09,12,00,04,14.90
2009,09,12,00,05,14.90
2009,09,12,00,06,14.90
2009,09,12,00,07,14.90
2009,09,12,00,08,14.90
2009,09,12,00,09,14.90
2009,09,12,00,10,14.90
2009,09,12,00,11,14.90
2009,09,12,00,12,14.90
2009,09,12,00,13,14.90
2009,09,12,00,14,14.90
2009,09,12,00,15,14.90
2009,09,12,00,16,14.90
2009,09,12,00,17,14.80
2009,09,12,00,18,14.80
2009,09,12,00,19,14.80
2009,09,12,00,20,14.80
2009,09,12,00,21,14.80
2009,09,12,00,22,14.80
2009,09,12,00,23,14.80
2009,09,12,00,24,14.80
2009,09,12,00,25,14.70
2009,09,12,00,26,14.70
2009,09,12,00,27,14.70
2009,09,12,00,28,14.70
2009,09,12,00,29,14.70
2009,09,12,00,30,14.70
2009,09,12,00,31,14.70
2009,09,12,00,32,14.60
2009,09,12,00,33,14.60
2009,09,12,00,34,14.60
2009,09,12,00,35,14.60
2009,09,12,00,36,14.60
2009,09,12,00,37,14.60
2009,09,12,00,38,14.60
2009,09,12,00,39,14.60
2009,09,12,00,40,14.60
2009,09,12,00,41,14.50
2009,09,12,00,42,14.50
2009,09,12,00,43,14.50
2009,09,12,00,44,14.50
2009,09,12,00,45,14.40
2009,09,12,00,46,14.40
2009,09,12,00,47,14.40
2009,09,12,00,48,14.40
2009,09,12,00,49,14.40
2009,09,12,00,50,14.40
2009,09,12,00,51,14.40
2009,09,12,00,52,14.40
2009,09,12,00,53,14.40
2009,09,12,00,54,14.40
2009,09,12,00,55,14.40
2009,09,12,00,56,14.40
2009,09,12,00,57,14.40
2009,09,12,00,58,14.40
2009,09,12,00,59,14.40
2009,09,12,01,00,14.40
2009,09,12,01,01,14.40
2009,09,12,01,02,14.40
2009,09,12,01,03,14.40
2009,09,12,01,04,14.40
2009,09,12,01,05,14.40
2009,09,12,01,06,14.40
2009,09,12,01,07,14.40
2009,09,12,01,08,14.30
2009,09,12,01,09,14.30
2009,09,12,01,10,14.30
2009,09,12,01,11,14.30
2009,09,12,01,12,14.30
2009,09,12,01,13,14.30
2009,09,12,01,14,14.30
2009,09,12,01,15,14.20
2009,09,12,01,16,14.20
2009,09,12,01,17,14.20
2009,09,12,01,18,14.20
2009,09,12,01,19,14.10
2009,09,12,01,20,14.10
2009,09,12,01,21,14.10
2009,09,12,01,22,14.10
2009,09,12,01,23,14.10
2009,09,12,01,24,14.00
2009,09,12,01,25,14.00
2009,09,12,01,26,14.00
2009,09,12,01,27,13.90
2009,09,12,01,28,13.90
2009,09,12,01,29,13.90
2009,09,12,01,30,13.90
2009,09,12,01,31,13.90
2009,09,12,01,32,13.90
2009,09,12,01,33,13.90
2009,09,12,01,34,13.90
2009,09,12,01,35,13.90
2009,09,12,01,36,13.80
2009,09,12,01,37,13.80
2009,09,12,01,38,13.90
2009,09,12,01,39,13.90
2009,09,12,01,40,13.90
2009,09,12,01,41,13.90
2009,09,12,01,42,13.90
2009,09,12,01,43,13.90
2009,09,12,01,44,13.90
2009,09,12,01,45,13.90
2009,09,12,01,46,13.90
2009,09,12,01,47,13.90
2009,09,12,01,48,13.90
2009,09,12,01,49,13.90
2009,09,12,01,50,13.90
2009,09,12,01,51,13.90
2009,09,12,01,52,13.90
2009,09,12,01,53,13.90
2009,09,12,01,54,13.90
2009,09,12,01,55,13.80
2009,09,12,01,56,13.80
2009,09,12,01,57,13.80
2009,09,12,01,58,13.80
2009,09,12,01,59,13.80
2009,09,12,02,00,13.80
2009,09,12,02,01,13.80
2009,09,12,02,02,13.80
2009,09,12,02,03,13.80
2009,09,12,02,04,13.80
2009,09,12,02,05,13.80
2009,09,12,02,06,13.80
2009,09,12,02,07,13.80
2009,09,12,02,08,13.80
2009,09,12,02,09,13.80
2009,09,12,02,10,13.80
2009,09,12,02,11,13.70
2009,09,12,02,12,13.70
2009,09,12,02,13,13.70
2009,09,12,02,14,13.70
2009,09,12,02,15,13.70
2009,09,12,02,16,13.70
2009,09,12,02,17,13.60
2009,09,12,02,18,13.60
2009,09,12,02,19,13.60
2009,09,12,02,20,13.60
2009,09,12,02,21,13.60
2009,09,12,02,22,13.60
2009,09,12,02,23,13.60
2009,09,12,02,24,13.60
2009,09,12,02,25,13.50
2009,09,12,02,26,13.50
2009,09,12,02,27,13.50
2009,09,12,02,28,13.50
2009,09,12,02,29,13.50
2009,09,12,02,30,13.50
2009,09,12,02,31,13.40
2009,09,12,02,32,13.40
2009,09,12,02,33,13.40
2009,09,12,02,34,13.40
2009,09,12,02,35,13.40
2009,09,12,02,36,13.40
2009,09,12,02,37,13.50
2009,09,12,02,38,13.50
2009,09,12,02,39,13.50
2009,09,12,02,40,13.50
2009,09,12,02,41,13.60
2009,09,12,02,42,13.60
2009,09,12,02,43,13.60
2009,09,12,02,44,13.60
2009,09,12,02,45,13.60
2009,09,12,02,46,13.60
2009,09,12,02,47,13.60
2009,09,12,02,48,13.60
2009,09,12,02,49,13.50
2009,09,12,02,50,13.50
2009,09,12,02,51,13.50
2009,09,12,02,52,13.50
2009,09,12,02,53,13.50
2009,09,12,02,54,13.50
2009,09,12,02,55,13.40
2009,09,12,02,56,13.40
2009,09,12,02,57,13.40
2009,09,12,02,58,13.40
2009,09,12,02,59,13.40
2009,09,12,03,00,13.40
2009,09,12,03,01,13.30
2009,09,12,03,02,13.30
2009,09,12,03,03,13.30
2009,09,12,03,04,13.30
2009,09,12,03,05,13.30
2009,09,12,03,06,13.30
2009,09,12,03,07,13.30
2009,09,12,03,08,13.30
2009,09,12,03,09,13.20
2009,09,12,03,10,13.20
2009,09,12,03,11,13.20
2009,09,12,03,12,13.20
2009,09,12,03,13,13.20
2009,09,12,03,14,13.20
2009,09,12,03,15,13.20
2009,09,12,03,16,13.20
2009,09,12,03,17,13.20
2009,09,12,03,18,13.20
2009,09,12,03,19,13.20
2009,09,12,03,20,13.20
2009,09,12,03,21,13.20
2009,09,12,03,22,13.20
2009,09,12,03,23,13.20
2009,09,12,03,24,13.20
2009,09,12,03,25,13.20
2009,09,12,03,26,13.20
2009,09,12,03,27,13.20
2009,09,12,03,28,13.20
2009,09,12,03,29,13.20
2009,09,12,03,30,13.20
2009,09,12,03,31,13.20
2009,09,12,03,32,13.20
2009,09,12,03,33,13.20
2009,09,12,03,34,13.20
2009,09,12,03,35,13.20
2009,09,12,03,36,13.20
2009,09,12,03,37,13.20
2009,09,12,03,38,13.20
2009,09,12,03,39,13.20
2009,09,12,03,40,13.20
2009,09,12,03,41,13.20
2009,09,12,03,42,13.20
2009,09,12,03,43,13.20
2009,09,12,03,44,13.20
2009,09,12,03,45,13.20
2009,09,12,03,46,13.20
2009,09,12,03,47,13.20
2009,09,12,03,48,13.20
2009,09,12,03,49,13.30
2009,09,12,03,50,13.30
2009,09,12,03,51,13.30
2009,09,12,03,52,13.30
2009,09,12,03,53,13.30
2009,09,12,03,54,13.30
2009,09,12,03,55,13.30
2009,09,12,03,56,13.20
2009,09,12,03,57,13.20
2009,09,12,03,58,13.20
2009,09,12,03,59,13.20
2009,09,12,04,00,13.20
2009,09,12,04,01,13.10
2009,09,12,04,02,13.10
2009,09,12,04,03,13.10
2009,09,12,04,04,13.10
2009,09,12,04,05,13.10
2009,09,12,04,06,13.00
2009,09,12,04,07,13.00
2009,09,12,04,08,12.90
2009,09,12,04,09,12.90
2009,09,12,04,10,12.90
2009,09,12,04,11,12.90
2009,09,12,04,12,12.90
2009,09,12,04,13,12.80
2009,09,12,04,14,12.80
2009,09,12,04,15,12.80
2009,09,12,04,16,12.80
2009,09,12,04,17,12.80
2009,09,12,04,18,12.80
2009,09,12,04,19,12.70
2009,09,12,04,20,12.70
2009,09,12,04,21,12.70
2009,09,12,04,22,12.70
2009,09,12,04,23,12.70
2009,09,12,04,24,12.70
2009,09,12,04,25,12.60
2009,09,12,04,26,12.60
2009,09,12,04,27,12.60
2009,09,12,04,28,12.60
2009,09,12,04,29,12.60
2009,09,12,04,30,12.60
2009,09,12,04,31,12.60
2009,09,12,04,32,12.50
2009,09,12,04,33,12.50
2009,09,12,04,34,12.50
2009,09,12,04,35,12.50
2009,09,12,04,36,12.50
2009,09,12,04,37,12.40
2009,09,12,04,38,12.40
2009,09,12,04,39,12.40
2009,09,12,04,40,12.40
2009,09,12,04,41,12.40
2009,09,12,04,42,12.40
2009,09,12,04,43,12.40
2009,09,12,04,44,12.40
2009,09,12,04,45,12.40
2009,09,12,04,46,12.40
2009,09,12,04,47,12.40
2009,09,12,04,48,12.40
2009,09,12,04,49,12.40
2009,09,12,04,50,12.40
2009,09,12,04,51,12.40
2009,09,12,04,52,12.40
2009,09,12,04,53,12.40
2009,09,12,04,54,12.40
2009,09,12,04,55,12.40
2009,09,12,04,56,12.40
2009,09,12,04,57,12.40
2009,09,12,04,58,12.40
2009,09,12,04,59,12.40
2009,09,12,05,00,12.40
2009,09,12,05,01,12.40
2009,09,12,05,02,12.40
2009,09,12,05,03,12.40
2009,09,12,05,04,12.40
2009,09,12,05,05,12.40
2009,09,12,05,06,12.30
2009,09,12,05,07,12.30
2009,09,12,05,08,12.30
2009,09,12,05,09,12.30
2009,09,12,05,10,12.30
2009,09,12,05,11,12.30
2009,09,12,05,12,12.30
2009,09,12,05,13,12.30
2009,09,12,05,14,12.30
2009,09,12,05,15,12.30
2009,09,12,05,16,12.30
2009,09,12,05,17,12.30
2009,09,12,05,18,12.30
2009,09,12,05,19,12.30
2009,09,12,05,20,12.30
2009,09,12,05,21,12.30
2009,09,12,05,22,12.30
2009,09,12,05,23,12.30
2009,09,12,05,24,12.30
2009,09,12,05,25,12.30
2009,09,12,05,26,12.30
2009,09,12,05,27,12.30
2009,09,12,05,28,12.30
2009,09,12,05,29,12.30
2009,09,12,05,30,12.30
2009,09,12,05,31,12.30
2009,09,12,05,32,12.30
2009,09,12,05,33,12.30
2009,09,12,05,34,12.30
2009,09,12,05,35,12.30
2009,09,12,05,36,12.30
2009,09,12,05,37,12.30
2009,09,12,05,38,12.30
2009,09,12,05,39,12.30
2009,09,12,05,40,12.30
2009,09,12,05,41,12.30
2009,09,12,05,42,12.30
2009,09,12,05,43,12.30
2009,09,12,05,44,12.30
2009,09,12,05,45,12.20
2009,09,12,05,46,12.20
2009,09,12,05,47,12.20
2009,09,12,05,48,12.20
2009,09,12,05,49,12.20
2009,09,12,05,50,12.20
2009,09,12,05,51,12.10
2009,09,12,05,52,12.10
2009,09,12,05,53,12.10
2009,09,12,05,54,12.10
2009,09,12,05,55,12.10
2009,09,12,05,56,12.10
2009,09,12,05,57,12.10
2009,09,12,05,58,12.10
2009,09,12,05,59,12.10
2009,09,12,06,00,12.00
2009,09,12,06,01,12.00
2009,09,12,06,02,12.00
2009,09,12,06,03,12.00
2009,09,12,06,04,12.00
2009,09,12,06,05,11.90
2009,09,12,06,06,11.90
2009,09,12,06,07,11.90
2009,09,12,06,08,11.90
2009,09,12,06,09,11.90
2009,09,12,06,10,11.90
2009,09,12,06,11,11.90
2009,09,12,06,12,11.90
2009,09,12,06,13,11.90
2009,09,12,06,14,12.00
2009,09,12,06,15,12.00
2009,09,12,06,16,12.00
2009,09,12,06,17,11.90
2009,09,12,06,18,11.90
2009,09,12,06,19,11.90
2009,09,12,06,20,11.90
2009,09,12,06,21,11.90
2009,09,12,06,22,11.90
2009,09,12,06,23,11.90
2009,09,12,06,24,11.90
2009,09,12,06,25,11.90
2009,09,12,06,26,11.90
2009,09,12,06,27,11.90
2009,09,12,06,28,12.00
2009,09,12,06,29,12.00
2009,09,12,06,30,12.00
2009,09,12,06,31,12.00
2009,09,12,06,32,12.10
2009,09,12,06,33,12.10
2009,09,12,06,34,12.10
2009,09,12,06,35,12.10
2009,09,12,06,36,12.10
2009,09,12,06,37,12.10
2009,09,12,06,38,12.10
2009,09,12,06,39,12.10
2009,09,12,06,40,12.10
2009,09,12,06,41,12.10
2009,09,12,06,42,12.10
2009,09,12,06,43,12.10
2009,09,12,06,44,12.10
2009,09,12,06,45,12.10
2009,09,12,06,46,12.10
2009,09,12,06,47,12.20
2009,09,12,06,48,12.20
2009,09,12,06,49,12.20
2009,09,12,06,50,12.20
2009,09,12,06,51,12.20
2009,09,12,06,52,12.20
2009,09,12,06,53,12.20
2009,09,12,06,54,12.20
2009,09,12,06,55,12.20
2009,09,12,06,56,12.20
2009,09,12,06,57,12.20
2009,09,12,06,58,12.20
2009,09,12,06,59,12.10
2009,09,12,07,00,12.10
2009,09,12,07,01,12.10
2009,09,12,07,02,12.10
2009,09,12,07,03,12.10
2009,09,12,07,04,12.10
2009,09,12,07,05,12.10
2009,09,12,07,06,12.10
2009,09,12,07,07,12.10
2009,09,12,07,08,12.10
2009,09,12,07,09,12.10
2009,09,12,07,10,12.10
2009,09,12,07,11,12.10
2009,09,12,07,12,12.20
2009,09,12,07,13,12.20
2009,09,12,07,14,12.20
2009,09,12,07,15,12.20
2009,09,12,07,16,12.20
2009,09,12,07,17,12.20
2009,09,12,07,18,12.20
2009,09,12,07,19,12.20
2009,09,12,07,20,12.20
2009,09,12,07,21,12.20
2009,09,12,07,22,12.20
2009,09,12,07,23,12.20
2009,09,12,07,24,12.20
2009,09,12,07,25,12.30
2009,09,12,07,26,12.30
2009,09,12,07,27,12.30
2009,09,12,07,28,12.30
2009,09,12,07,29,12.30
2009,09,12,07,30,12.30
2009,09,12,07,31,12.30
2009,09,12,07,32,12.30
2009,09,12,07,33,12.30
2009,09,12,07,34,12.30
2009,09,12,07,35,12.30
2009,09,12,07,36,12.30
2009,09,12,07,37,12.30
2009,09,12,07,38,12.30
2009,09,12,07,39,12.30
2009,09,12,07,40,12.40
2009,09,12,07,41,12.40
2009,09,12,07,42,12.40
2009,09,12,07,43,12.50
2009,09,12,07,44,12.50
2009,09,12,07,45,12.50
2009,09,12,07,46,12.60
2009,09,12,07,47,12.60
2009,09,12,07,48,12.60
2009,09,12,07,49,12.60
2009,09,12,07,50,12.70
2009,09,12,07,51,12.70
2009,09,12,07,52,12.70
2009,09,12,07,53,12.80
2009,09,12,07,54,12.80
2009,09,12,07,55,12.90
2009,09,12,07,56,12.90
2009,09,12,07,57,12.90
2009,09,12,07,58,13.00
2009,09,12,07,59,13.00
2009,09,12,08,00,13.10
2009,09,12,08,01,13.10
2009,09,12,08,02,13.20
2009,09,12,08,03,13.20
2009,09,12,08,04,13.30
2009,09,12,08,05,13.30
2009,09,12,08,06,13.30
2009,09,12,08,07,13.40
2009,09,12,08,08,13.40
2009,09,12,08,09,13.50
2009,09,12,08,10,13.50
2009,09,12,08,11,13.60
2009,09,12,08,12,13.60
2009,09,12,08,13,13.70
2009,09,12,08,14,13.80
2009,09,12,08,15,13.80
2009,09,12,08,16,13.90
2009,09,12,08,17,14.00
2009,09,12,08,18,14.00
2009,09,12,08,19,14.10
2009,09,12,08,20,14.20
2009,09,12,08,21,14.30
2009,09,12,08,22,14.40
2009,09,12,08,23,14.40
2009,09,12,08,24,14.50
2009,09,12,08,25,14.50
2009,09,12,08,26,14.50
2009,09,12,08,27,14.60
2009,09,12,08,28,14.60
2009,09,12,08,29,14.60
2009,09,12,08,30,14.60
2009,09,12,08,31,14.60
2009,09,12,08,32,14.60
2009,09,12,08,33,14.70
2009,09,12,08,34,14.70
2009,09,12,08,35,14.70
2009,09,12,08,36,14.70
2009,09,12,08,37,14.80
2009,09,12,08,38,14.90
2009,09,12,08,39,15.00
2009,09,12,08,40,15.00
2009,09,12,08,41,15.00
2009,09,12,08,42,15.00
2009,09,12,08,43,15.00
2009,09,12,08,44,15.20
2009,09,12,08,45,15.20
2009,09,12,08,46,15.30
2009,09,12,08,47,15.30
2009,09,12,08,48,15.40
2009,09,12,08,49,15.50
2009,09,12,08,50,15.50
2009,09,12,08,51,15.60
2009,09,12,08,52,15.60
2009,09,12,08,53,15.70
2009,09,12,08,54,15.70
2009,09,12,08,55,15.70
2009,09,12,08,56,15.80
2009,09,12,08,57,15.90
2009,09,12,08,58,15.90
2009,09,12,08,59,16.00
2009,09,12,09,00,16.10
2009,09,12,09,01,16.10
2009,09,12,09,02,16.20
2009,09,12,09,03,16.30
2009,09,12,09,04,16.40
2009,09,12,09,05,16.40
2009,09,12,09,06,16.50
2009,09,12,09,07,16.60
2009,09,12,09,08,16.70
2009,09,12,09,09,16.80
2009,09,12,09,10,16.90
2009,09,12,09,11,17.00
2009,09,12,09,12,17.10
2009,09,12,09,13,17.30
2009,09,12,09,14,17.40
2009,09,12,09,15,17.50
2009,09,12,09,16,17.60
2009,09,12,09,17,17.70
2009,09,12,09,18,17.90
2009,09,12,09,19,18.00
2009,09,12,09,20,18.10
2009,09,12,09,21,18.30
2009,09,12,09,22,18.40
2009,09,12,09,23,18.60
2009,09,12,09,24,18.80
2009,09,12,09,25,19.00
2009,09,12,09,26,19.20
2009,09,12,09,27,19.30
2009,09,12,09,28,19.50
2009,09,12,09,29,19.70
2009,09,12,09,30,19.80
2009,09,12,09,31,19.90
2009,09,12,09,32,20.10
2009,09,12,09,33,20.20
2009,09,12,09,34,20.40
2009,09,12,09,35,20.50
2009,09,12,09,36,20.60
2009,09,12,09,37,20.70
2009,09,12,09,38,20.80
2009,09,12,09,39,20.90
2009,09,12,09,40,21.00
2009,09,12,09,41,21.10
2009,09,12,09,42,21.20
2009,09,12,09,43,21.20
2009,09,12,09,44,21.30
2009,09,12,09,45,21.40
2009,09,12,09,46,21.50
2009,09,12,09,47,21.60
2009,09,12,09,48,21.70
2009,09,12,09,49,21.80
2009,09,12,09,50,21.80
2009,09,12,09,51,21.90
2009,09,12,09,52,22.00
2009,09,12,09,53,22.00
2009,09,12,09,54,22.10
2009,09,12,09,55,22.20
2009,09,12,09,56,22.20
2009,09,12,09,57,22.30
2009,09,12,09,58,22.40
2009,09,12,09,59,22.40
2009,09,12,10,00,22.50
2009,09,12,10,01,22.60
2009,09,12,10,02,22.70
2009,09,12,10,03,22.70
2009,09,12,10,04,22.70
2009,09,12,10,05,22.80
2009,09,12,10,06,22.80
2009,09,12,10,07,22.80
2009,09,12,10,08,22.80
2009,09,12,10,09,22.80
2009,09,12,10,10,22.80
2009,09,12,10,11,22.90
2009,09,12,10,12,22.90
2009,09,12,10,13,22.90
2009,09,12,10,14,22.90
2009,09,12,10,15,22.90
2009,09,12,10,16,22.90
2009,09,12,10,17,22.90
2009,09,12,10,18,23.00
2009,09,12,10,19,23.00
2009,09,12,10,20,23.10
2009,09,12,10,21,23.10
2009,09,12,10,22,23.20
2009,09,12,10,23,23.30
2009,09,12,10,24,23.30
2009,09,12,10,25,23.30
2009,09,12,10,26,23.30
2009,09,12,10,27,23.30
2009,09,12,10,28,23.30
2009,09,12,10,29,23.40
2009,09,12,10,30,23.40
2009,09,12,10,31,23.50
2009,09,12,10,32,23.50
2009,09,12,10,33,23.60
2009,09,12,10,34,23.70
2009,09,12,10,35,23.70
2009,09,12,10,36,23.70
2009,09,12,10,37,23.70
2009,09,12,10,38,23.70
2009,09,12,10,39,23.80
2009,09,12,10,40,23.80
2009,09,12,10,41,23.80
2009,09,12,10,42,23.80
2009,09,12,10,43,23.80
2009,09,12,10,44,23.80
2009,09,12,10,45,23.80
2009,09,12,10,46,23.80
2009,09,12,10,47,23.90
2009,09,12,10,48,23.90
2009,09,12,10,49,23.90
2009,09,12,10,50,23.90
2009,09,12,10,51,24.00
2009,09,12,10,52,24.00
2009,09,12,10,53,24.00
2009,09,12,10,54,24.00
2009,09,12,10,55,23.90
2009,09,12,10,56,23.90
2009,09,12,10,57,23.90
2009,09,12,10,58,23.90
2009,09,12,10,59,23.90
2009,09,12,11,00,23.80
2009,09,12,11,01,23.80
2009,09,12,11,02,23.70
2009,09,12,11,03,23.60
2009,09,12,11,04,23.50
2009,09,12,11,05,23.50
2009,09,12,11,06,23.60
2009,09,12,11,07,23.60
2009,09,12,11,08,23.70
2009,09,12,11,09,23.80
2009,09,12,11,10,23.80
2009,09,12,11,11,23.80
2009,09,12,11,12,23.80
2009,09,12,11,13,23.90
2009,09,12,11,14,23.90
2009,09,12,11,15,23.90
2009,09,12,11,16,23.80
2009,09,12,11,17,23.70
2009,09,12,11,18,23.70
2009,09,12,11,19,23.60
2009,09,12,11,20,23.60
2009,09,12,11,21,23.40
2009,09,12,11,22,23.30
2009,09,12,11,23,23.20
2009,09,12,11,24,23.10
2009,09,12,11,25,23.10
2009,09,12,11,26,23.10
2009,09,12,11,27,23.10
2009,09,12,11,28,23.10
2009,09,12,11,29,23.10
2009,09,12,11,30,23.20
2009,09,12,11,31,23.20
2009,09,12,11,32,23.20
2009,09,12,11,33,23.30
2009,09,12,11,34,23.30
2009,09,12,11,35,23.40
2009,09,12,11,36,23.40
2009,09,12,11,37,23.40
2009,09,12,11,38,23.40
2009,09,12,11,39,23.30
2009,09,12,11,40,23.30
2009,09,12,11,41,23.30
2009,09,12,11,42,23.20
2009,09,12,11,43,23.10
2009,09,12,11,44,23.10
2009,09,12,11,45,23.10
2009,09,12,11,46,23.10
2009,09,12,11,47,23.10
2009,09,12,11,48,23.20
2009,09,12,11,49,23.20
2009,09,12,11,50,23.20
2009,09,12,11,51,23.20
2009,09,12,11,52,23.20
2009,09,12,11,53,23.30
2009,09,12,11,54,23.30
2009,09,12,11,55,23.40
2009,09,12,11,56,23.40
2009,09,12,11,57,23.50
2009,09,12,11,58,23.50
2009,09,12,11,59,23.50
2009,09,12,12,00,23.60
2009,09,12,12,01,23.60
2009,09,12,12,02,23.60
2009,09,12,12,03,23.70
2009,09,12,12,04,23.60
2009,09,12,12,05,23.50
2009,09,12,12,06,23.40
2009,09,12,12,07,23.40
2009,09,12,12,08,23.40
2009,09,12,12,09,23.40
2009,09,12,12,10,23.40
2009,09,12,12,11,23.40
2009,09,12,12,12,23.50
2009,09,12,12,13,23.50
2009,09,12,12,14,23.60
2009,09,12,12,15,23.70
2009,09,12,12,16,23.70
2009,09,12,12,17,23.70
2009,09,12,12,18,23.80
2009,09,12,12,19,23.80
2009,09,12,12,20,23.90
2009,09,12,12,21,23.90
2009,09,12,12,22,24.00
2009,09,12,12,23,24.10
2009,09,12,12,24,24.10
2009,09,12,12,25,24.10
2009,09,12,12,26,24.10
2009,09,12,12,27,24.10
2009,09,12,12,28,24.10
2009,09,12,12,29,24.10
2009,09,12,12,30,24.20
2009,09,12,12,31,24.20
2009,09,12,12,32,24.30
2009,09,12,12,33,24.40
2009,09,12,12,34,24.50
2009,09,12,12,35,24.60
2009,09,12,12,36,24.80
2009,09,12,12,37,24.80
2009,09,12,12,38,24.80
2009,09,12,12,39,24.90
2009,09,12,12,40,24.90
2009,09,12,12,41,24.90
2009,09,12,12,42,24.90
2009,09,12,12,43,24.90
2009,09,12,12,44,24.80
2009,09,12,12,45,24.80
2009,09,12,12,46,24.90
2009,09,12,12,47,24.90
2009,09,12,12,48,24.80
2009,09,12,12,49,24.80
2009,09,12,12,50,24.80
2009,09,12,12,51,24.60
2009,09,12,12,52,24.40
2009,09,12,12,53,24.40
2009,09,12,12,54,24.30
2009,09,12,12,55,24.30
2009,09,12,12,56,24.30
2009,09,12,12,57,24.40
2009,09,12,12,58,24.40
2009,09,12,12,59,24.40
2009,09,12,13,00,24.40
2009,09,12,13,01,24.40
2009,09,12,13,02,24.40
2009,09,12,13,03,24.40
2009,09,12,13,04,24.40
2009,09,12,13,05,24.40
2009,09,12,13,06,24.40
2009,09,12,13,07,24.40
2009,09,12,13,08,24.50
2009,09,12,13,09,24.60
2009,09,12,13,10,24.60
2009,09,12,13,11,24.70
2009,09,12,13,12,24.70
2009,09,12,13,13,24.80
2009,09,12,13,14,24.80
2009,09,12,13,15,24.90
2009,09,12,13,16,25.00
2009,09,12,13,17,25.10
2009,09,12,13,18,25.10
2009,09,12,13,19,25.10
2009,09,12,13,20,25.10
2009,09,12,13,21,25.20
2009,09,12,13,22,25.20
2009,09,12,13,23,25.10
2009,09,12,13,24,25.00
2009,09,12,13,25,25.00
2009,09,12,13,26,24.90
2009,09,12,13,27,24.90
2009,09,12,13,28,24.80
2009,09,12,13,29,24.80
2009,09,12,13,30,24.90
2009,09,12,13,31,25.00
2009,09,12,13,32,25.00
2009,09,12,13,33,25.10
2009,09,12,13,34,25.20
2009,09,12,13,35,25.30
2009,09,12,13,36,25.30
2009,09,12,13,37,25.30
2009,09,12,13,38,25.40
2009,09,12,13,39,25.30
2009,09,12,13,40,25.30
2009,09,12,13,41,25.30
2009,09,12,13,42,25.30
2009,09,12,13,43,25.40
2009,09,12,13,44,25.40
2009,09,12,13,45,25.40
2009,09,12,13,46,25.40
2009,09,12,13,47,25.40
2009,09,12,13,48,25.40
2009,09,12,13,49,25.50
2009,09,12,13,50,25.50
2009,09,12,13,51,25.60
2009,09,12,13,52,25.50
2009,09,12,13,53,25.50
2009,09,12,13,54,25.40
2009,09,12,13,55,25.40
2009,09,12,13,56,25.40
2009,09,12,13,57,25.40
2009,09,12,13,58,25.30
2009,09,12,13,59,25.30
2009,09,12,14,00,25.30
2009,09,12,14,01,25.40
2009,09,12,14,02,25.40
2009,09,12,14,03,25.50
2009,09,12,14,04,25.60
2009,09,12,14,05,25.70
2009,09,12,14,06,25.80
2009,09,12,14,07,25.90
2009,09,12,14,08,25.90
2009,09,12,14,09,25.90
2009,09,12,14,10,25.80
2009,09,12,14,11,25.70
2009,09,12,14,12,25.70
2009,09,12,14,13,25.80
2009,09,12,14,14,25.90
2009,09,12,14,15,25.90
2009,09,12,14,16,26.00
2009,09,12,14,17,26.10
2009,09,12,14,18,26.20
2009,09,12,14,19,26.10
2009,09,12,14,20,26.10
2009,09,12,14,21,26.00
2009,09,12,14,22,26.00
2009,09,12,14,23,26.00
2009,09,12,14,24,25.90
2009,09,12,14,25,25.90
2009,09,12,14,26,25.90
2009,09,12,14,27,25.90
2009,09,12,14,28,26.00
2009,09,12,14,29,26.10
2009,09,12,14,30,26.20
2009,09,12,14,31,26.20
2009,09,12,14,32,26.40
2009,09,12,14,33,26.50
2009,09,12,14,34,26.60
2009,09,12,14,35,26.70
2009,09,12,14,36,26.80
2009,09,12,14,37,26.80
2009,09,12,14,38,26.70
2009,09,12,14,39,26.60
2009,09,12,14,40,26.50
2009,09,12,14,41,26.50
2009,09,12,14,42,26.40
2009,09,12,14,43,26.40
2009,09,12,14,44,26.40
2009,09,12,14,45,26.40
2009,09,12,14,46,26.40
2009,09,12,14,47,26.50
2009,09,12,14,48,26.50
2009,09,12,14,49,26.50
2009,09,12,14,50,26.50
2009,09,12,14,51,26.60
2009,09,12,14,52,26.60
2009,09,12,14,53,26.60
2009,09,12,14,54,26.60
2009,09,12,14,55,26.60
2009,09,12,14,56,26.60
2009,09,12,14,57,26.60
2009,09,12,14,58,26.70
2009,09,12,14,59,26.70
2009,09,12,15,00,26.80
2009,09,12,15,01,26.80
2009,09,12,15,02,26.80
2009,09,12,15,03,26.90
2009,09,12,15,04,27.00
2009,09,12,15,05,27.10
2009,09,12,15,06,27.10
2009,09,12,15,07,27.20
2009,09,12,15,08,27.20
2009,09,12,15,09,27.10
2009,09,12,15,10,27.10
2009,09,12,15,11,27.00
2009,09,12,15,12,26.90
2009,09,12,15,13,26.80
2009,09,12,15,14,26.90
2009,09,12,15,15,26.90
2009,09,12,15,16,26.90
2009,09,12,15,17,26.90
2009,09,12,15,18,26.90
2009,09,12,15,19,26.90
2009,09,12,15,20,26.90
2009,09,12,15,21,26.90
2009,09,12,15,22,26.90
2009,09,12,15,23,26.90
2009,09,12,15,24,26.90
2009,09,12,15,25,26.90
2009,09,12,15,26,26.90
2009,09,12,15,27,26.90
2009,09,12,15,28,26.80
2009,09,12,15,29,26.80
2009,09,12,15,30,26.90
2009,09,12,15,31,26.90
2009,09,12,15,32,26.90
2009,09,12,15,33,27.00
2009,09,12,15,34,27.10
2009,09,12,15,35,27.10
2009,09,12,15,36,27.10
2009,09,12,15,37,27.20
2009,09,12,15,38,27.20
2009,09,12,15,39,27.20
2009,09,12,15,40,27.20
2009,09,12,15,41,27.10
2009,09,12,15,42,27.10
2009,09,12,15,43,27.10
2009,09,12,15,44,27.10
2009,09,12,15,45,27.10
2009,09,12,15,46,27.10
2009,09,12,15,47,27.10
2009,09,12,15,48,27.10
2009,09,12,15,49,27.10
2009,09,12,15,50,27.00
2009,09,12,15,51,27.00
2009,09,12,15,52,26.90
2009,09,12,15,53,26.90
2009,09,12,15,54,26.80
2009,09,12,15,55,26.80
2009,09,12,15,56,26.80
2009,09,12,15,57,26.90
2009,09,12,15,58,27.00
2009,09,12,15,59,27.00
2009,09,12,16,00,27.10
2009,09,12,16,01,27.10
2009,09,12,16,02,27.10
2009,09,12,16,03,27.20
2009,09,12,16,04,27.30
2009,09,12,16,05,27.40
2009,09,12,16,06,27.50
2009,09,12,16,07,27.60
2009,09,12,16,08,27.70
2009,09,12,16,09,27.80
2009,09,12,16,10,27.80
2009,09,12,16,11,27.90
2009,09,12,16,12,27.90
2009,09,12,16,13,27.90
2009,09,12,16,14,27.90
2009,09,12,16,15,27.90
2009,09,12,16,16,27.90
2009,09,12,16,17,27.90
2009,09,12,16,18,27.80
2009,09,12,16,19,27.80
2009,09,12,16,20,27.80
2009,09,12,16,21,27.70
2009,09,12,16,22,27.60
2009,09,12,16,23,27.50
2009,09,12,16,24,27.50
2009,09,12,16,25,27.40
2009,09,12,16,26,27.30
2009,09,12,16,27,27.30
2009,09,12,16,28,27.20
2009,09,12,16,29,27.20
2009,09,12,16,30,27.10
2009,09,12,16,31,27.10
2009,09,12,16,32,27.00
2009,09,12,16,33,26.90
2009,09,12,16,34,26.90
2009,09,12,16,35,26.90
2009,09,12,16,36,26.80
2009,09,12,16,37,26.80
2009,09,12,16,38,26.70
2009,09,12,16,39,26.70
2009,09,12,16,40,26.70
2009,09,12,16,41,26.70
2009,09,12,16,42,26.70
2009,09,12,16,43,26.70
2009,09,12,16,44,26.70
2009,09,12,16,45,26.70
2009,09,12,16,46,26.80
2009,09,12,16,47,26.80
2009,09,12,16,48,26.90
2009,09,12,16,49,27.00
2009,09,12,16,50,27.10
2009,09,12,16,51,27.20
2009,09,12,16,52,27.20
2009,09,12,16,53,27.20
2009,09,12,16,54,27.20
2009,09,12,16,55,27.10
2009,09,12,16,56,27.00
2009,09,12,16,57,26.90
2009,09,12,16,58,26.70
2009,09,12,16,59,26.50
2009,09,12,17,00,26.30
2009,09,12,17,01,26.10
2009,09,12,17,02,25.90
2009,09,12,17,03,25.70
2009,09,12,17,04,25.50
2009,09,12,17,05,25.30
2009,09,12,17,06,25.20
2009,09,12,17,07,25.00
2009,09,12,17,08,24.90
2009,09,12,17,09,24.90
2009,09,12,17,10,24.80
2009,09,12,17,11,24.80
2009,09,12,17,12,24.70
2009,09,12,17,13,24.70
2009,09,12,17,14,24.60
2009,09,12,17,15,24.60
2009,09,12,17,16,24.50
2009,09,12,17,17,24.50
2009,09,12,17,18,24.40
2009,09,12,17,19,24.40